Location: Laguna de la Cañada del Gallo
(40.3974°N, 5.2096°W)
Time: 07:34:38
(UTC+00:00)

ATLAS 5 CENTAUR R/B - Visible Passes

Search period start: 13 July 2024 00:00
Search period end: 23 July 2024 00:00
Orbit: 417 x 1167 km, 63.3° (Epoch: 13 July)

Date Brightness Start Highest point End Pass type
(mag) Time Alt. Az. Time Alt. Az. Time Alt. Az.
13 Jul 4.7 04:12:27 10° N 04:16:33 25° NE 04:21:22 10° E visible
13 Jul 0.7 20:39:43 10° SSW 20:42:57 81° SE 20:46:23 10° NE visible
14 Jul 4.9 03:42:12 10° N 03:45:52 20° NE 03:50:03 10° E visible
14 Jul 4.6 21:55:05 10° WNW 21:56:34 12° NW 21:58:05 10° NNW visible
15 Jul 5.1 03:12:01 10° N 03:15:06 16° NE 03:18:34 10° E visible
15 Jul 4.3 21:23:37 10° W 21:25:46 16° NW 21:28:04 10° N visible
16 Jul 5.3 02:42:01 10° N 02:44:18 13° NE 02:46:48 10° ENE visible
16 Jul 2.7 04:23:43 10° NNW 04:28:46 66° NE 04:35:01 10° SE visible
16 Jul 3.9 20:52:24 10° W 20:55:01 21° NW 20:57:48 10° N visible
17 Jul 5.4 02:12:37 10° NNE 02:13:27 10° NE 02:14:17 10° NE visible
17 Jul 3.2 03:53:11 10° NNW 03:58:06 51° NE 04:04:08 10° SE visible
17 Jul 3.3 20:21:21 10° WSW 20:24:16 29° NW 20:27:24 10° NNE visible
18 Jul 3.6 03:22:41 10° NNW 03:27:24 40° NE 03:33:06 10° ESE visible
19 Jul 4.0 02:52:13 10° NNW 02:56:39 31° NE 03:01:56 10° ESE visible
19 Jul 2.5 04:35:31 10° NW 04:40:34 46° WSW 04:46:40 10° S visible
20 Jul 4.3 02:21:46 10° N 02:25:50 25° NE 02:30:36 10° E visible
20 Jul 2.3 04:04:43 10° NW 04:09:51 60° WSW 04:16:10 10° SSE visible
21 Jul 4.5 01:51:22 10° N 01:54:59 20° NE 01:59:08 10° E visible
21 Jul 2.1 03:33:57 10° NW 03:39:08 77° WSW 03:45:31 10° SSE visible
22 Jul 4.7 01:21:02 10° N 01:24:04 16° NE 01:27:27 10° ENE visible
22 Jul 2.2 03:03:13 10° NNW 03:08:22 83° NE 03:14:43 10° SE visible
